星链-32377 (STARLINK-32377)

导读 | 豆包AI

STARLINK-32377是美国SpaceX公司星链(Starlink)星座的一员,于2024年11月9日发射入轨。星链项目旨在构建低轨卫星互联网星座,为全球尤其是偏远地区提供高速宽带互联网接入服务。作为星座组网卫星,STARLINK-32377进一步扩充了星链网络规模,助力SpaceX实现全球覆盖的卫星互联网布局,推进低轨通信星座建设进程。

基本信息
目录编号:
61888
目录名称:
STARLINK-32377
国际标识:
2024-204Q
轨道中心:
EARTH
卫星名称:
星链-32377
卫星全名:
星链-32377 (STARLINK-32377)
卫星状态:
在轨 (已飞行491 天)
发射日期:
2024-11-09 UTC
国别 :
美国 (US)
星等 :
--
轨道信息
数据来源 国际轨道数据
星历时间: 2026-03-15T03:28:54+0800
14小时前
查看轨道信息
半长轴: 6853.324km
偏心率: 0.0001539
轨道倾角: 53.161°
近地点辐角 89.656°
升交点赤经 103.151°
平近点角 270.462°
近地点: 474.132km
远地点: 476.242km
周期: 94.105分钟
每日圈数: 15.302097
详细信息
固有亮度:
5
最大亮度:
2.5
卫星平台:
Starlink V1.0
覆盖范围:
全球
运营商:
太空探索技术公司
运营商所在国:
美国
制造商(研发单位):
太空探索技术公司
制造商所在国:
美国
使用方式:
暂无
卫星简介
Starlink 计划是 SpaceX 推出的全球卫星互联网项目,通过发射低轨道卫星,为全球尤其是偏远地区提供高速、低延迟的互联网服务。自 2019 年起,Starlink 已部署数千颗卫星,旨在缩小全球数字鸿沟,推动互联网普及。该项目还为军事、航空等行业提供通信支持,带来广泛经济效益。
2D轨道图
3D轨道图
轨道高度分析图
轨道倾角分析图
轨道综合分析图
查看轨道综合分析图